[[{"header":{"parameterUnit":"m.s-1","parameterCategory":1,"la1":30.2991,"la2":30.254,"lo1":-89.0895,"lo2":-89.0444,"dy":0.0017,"dx":0.0017,"nx":28,"ny":28,"refTime":"2024-07-03T21:00:00:Z","depth":0,"parameterNumber":2,"parameterNumberName":"U-component_of_WINDS"},"data":[0,0,0,0,0,0,0,0,0,0,0,0,0,0,0,0,0,0,0,0,0,0,0,0,0,0,0,0,0,0,0,0,0,0,0,0,0,0,0,0,0,0,0,0,0,0,0,0,0,0,0,0,0,0,0,0,0,0,-2.7804,-2.7803,0,-2.7756,-2.7755,-2.7755,-2.7767,-2.7768,-2.7769,-2.777,-2.7711,-2.7709,-2.7707,0,0,0,0,0,0,0,0,0,0,0,0,0,-2.7899,-2.7897,-2.7804,-2.7803,-2.7803,-2.7756,-2.7755,-2.7755,-2.7767,-2.7768,-2.7769,-2.777,-2.7712,-2.7709,-2.7706,0,0,0,0,0,0,0,0,0,0,0,0,0,-2.7855,-2.7896,-2.7804,-2.7803,-2.7803,-2.7756,-2.7755,-2.7755,-2.7767,-2.7768,-2.777,-2.7771,-2.7713,-2.771,-2.7706,-2.7654,0,0,-2.7695,-2.7693,0,0,0,0,0,0,0,0,-2.7857,-2.7851,-2.7804,-2.7803,-2.7803,-2.7769,-2.7767,-2.7721,-2.7766,-2.778,-2.777,-2.7772,-2.7729,-2.7724,-2.7712,-2.7651,-2.7649,-2.7694,-2.7692,-2.7691,-2.769,0,0,0,0,0,0,0,-2.786,-2.7853,-2.7785,-2.7803,-2.7802,-2.7803,-2.7798,-2.7759,-2.7746,-2.7779,-2.778,-2.7774,-2.7729,-2.7715,-2.771,-2.7648,-2.7695,-2.7691,-2.7689,-2.7688,-2.7542,-2.7541,0,0,0,0,0,0,-2.7865,-2.7856,-2.7786,-2.7783,-2.7834,-2.78,-2.7795,-2.7778,-2.7747,-2.7744,-2.7773,-2.7775,-2.7721,-2.7715,-2.7708,-2.7644,-2.7691,-2.7687,-2.7685,-2.7544,-2.7542,-2.754,0,0,0,0,0,0,-2.7867,-2.7859,-2.7788,-2.782,-2.7811,-2.7797,-2.7778,-2.7777,-2.7763,-2.7743,-2.774,-2.7762,-2.7722,-2.7713,-2.7668,-2.7642,-2.7686,-2.7682,-2.7546,-2.7543,-2.7541,-2.7516,0,0,0,0,0,0,-2.7869,-2.7859,-2.7841,-2.7819,-2.7809,-2.7751,-2.7777,-2.7775,-2.7758,-2.776,-2.7731,-2.7728,-2.7722,-2.7674,-2.7664,-2.7638,-2.7679,-2.7548,-2.7545,-2.7542,-2.7519,-2.7513,-2.7508,0,0,0,0,0,-2.7873,-2.7834,-2.784,-2.7831,-2.7786,-2.7749,-2.7743,-2.774,-2.7756,-2.7736,-2.7723,-2.7729,-2.7648,-2.7669,-2.7659,-2.7631,-2.7549,-2.7546,-2.7542,-2.7521,-2.7514,-2.7508,0,0,0,0,0,0,-2.7848,-2.7831,-2.7837,-2.7791,-2.7772,-2.7752,-2.7726,-2.7732,-2.7706,-2.7708,-2.7703,-2.7696,-2.7649,-2.7636,-2.766,-2.7579,-2.76,-2.7595,-2.7588,-2.7581,-2.7576,-2.7578,-2.7676,0,0,0,0,0,-2.7839,-2.7813,-2.7798,-2.7758,-2.7749,-2.7739,-2.7723,-2.7723,-2.7701,-2.7692,-2.7676,-2.7653,-2.7622,-2.7602,-2.7572,-2.7519,-2.7511,-2.7495,-2.7489,-2.7485,-2.7478,-2.7447,-2.7439,-2.7528,-2.7528,-2.7528,0,0,-2.7816,-2.7803,-2.7786,-2.7753,-2.7738,-2.7709,-2.7732,-2.77,-2.7677,-2.7686,-2.7643,-2.7631,-2.7604,-2.7555,-2.7532,-2.7542,-2.7453,-2.748,-2.7477,-2.7472,-2.7443,-2.7434,-2.7427,-2.7526,-2.7526,-2.7526,0,0,-2.7759,-2.7748,-2.7713,-2.7699,-2.7678,-2.7673,-2.7665,-2.7645,-2.7637,-2.7595,-2.7601,-2.7573,-2.7521,-2.7502,-2.7485,-2.7425,-2.7428,-2.7415,-2.7384,-2.7354,-2.7347,-2.7341,-2.7316,-2.7308,-2.741,-2.741,-2.741,0,-2.7732,-2.7691,-2.7694,-2.7662,-2.7646,-2.7658,-2.7621,-2.7606,-2.7575,-2.7563,-2.7576,-2.7511,-2.7495,-2.744,-2.7425,-2.7413,-2.7401,-2.7416,-2.7349,-2.7342,-2.7336,-2.7313,-2.7304,-2.7408,-2.7408,-2.7409,-2.7409,0,-2.7658,-2.7629,-2.7603,-2.7577,-2.7558,-2.7524,-2.752,-2.7501,-2.7503,-2.7495,-2.7451,-2.7433,-2.7399,-2.7387,-2.7387,-2.7332,-2.7339,-2.7351,-2.7372,-2.7326,-2.7304,-2.7295,-2.7406,-2.7406,-2.7407,-2.7407,0,0,-2.7579,-2.7558,-2.7548,-2.7536,-2.7516,-2.7492,-2.7458,-2.7429,-2.7411,-2.7391,-2.736,-2.7317,-2.7329,-2.731,-2.7309,-2.7283,-2.7233,-2.7298,-2.7297,-2.7283,-2.7168,-2.7156,-2.7146,-2.7238,-2.7236,-2.7235,-2.7169,0,-2.7518,-2.7461,-2.7464,-2.7409,-2.7381,-2.7394,-2.7364,-2.7347,-2.734,-2.7313,-2.7305,-2.7274,-2.7293,-2.7281,-2.7257,-2.7245,-2.7209,-2.725,-2.7205,-2.7203,-2.7207,-2.7135,-2.7122,-2.706,-2.7161,-2.7159,-2.7158,0,-2.7437,-2.7417,-2.736,-2.7345,-2.7333,-2.7307,-2.728,-2.7257,-2.7237,-2.7234,-2.7215,-2.7219,-2.7182,-2.7208,-2.7155,-2.7183,-2.7166,-2.7157,-2.7155,-2.7146,-2.7174,-2.712,-2.7041,-2.703,-2.7145,-2.7146,-2.7147,0,-2.7381,-2.7341,-2.7301,-2.7291,-2.7273,-2.7253,-2.7244,-2.7227,-2.721,-2.7186,-2.7175,-2.7147,-2.713,-2.7107,-2.7102,-2.7123,-2.7049,-2.7075,-2.7041,-2.7041,-2.702,-2.7021,-2.6933,-2.7017,-2.7017,-2.7017,-2.7018,0,-2.731,-2.7273,-2.7276,-2.7251,-2.7211,-2.7215,-2.7174,-2.7166,-2.7151,-2.7123,-2.7133,-2.7106,-2.7104,-2.7075,-2.7072,-2.7027,-2.702,-2.7014,-2.7012,-2.701,-2.701,-2.6995,-2.6997,-2.7015,-2.7015,-2.7016,-2.7016,0,-2.7238,-2.7239,-2.7196,-2.7184,-2.7181,-2.7151,-2.7139,-2.7114,-2.7111,-2.7075,-2.7067,-2.7059,-2.7026,-2.7021,-2.6982,-2.6979,-2.6925,-2.693,-2.6931,-2.693,-2.6896,-2.6897,-2.679,-2.6775,-2.6874,-2.6873,-2.6872,0,-2.719,-2.7163,-2.7149,-2.7133,-2.7124,-2.7097,-2.708,-2.7084,-2.7066,-2.7044,-2.702,-2.699,-2.6965,-2.6912,-2.69,-2.687,-2.6872,-2.6837,-2.6867,-2.6866,-2.6866,-2.6866,-2.6862,-2.6829,-2.6828,-2.6827,-2.6826,0,-2.7103,-2.7106,-2.7083,-2.7061,-2.7042,-2.7023,-2.7006,-2.6992,-2.6993,-2.6972,-2.694,-2.6922,-2.6884,-2.6851,-2.6822,-2.681,-2.6816,-2.6818,-2.6808,-2.6803,-2.6803,-2.6799,-2.6911,-2.6819,-2.682,-2.682,-2.6821,-2.6821,-2.7039,-2.7015,-2.7002,-2.6976,-2.6965,-2.6949,-2.6926,-2.6921,-2.6896,-2.6866,-2.6871,-2.6835,-2.6817,-2.6779,-2.6765,-2.6735,-2.6746,-2.6732,-2.6728,-2.6723,-2.6718,-2.6813,-2.6731,-2.6731,-2.6731,-2.6731,-2.6731,0,-2.6949,-2.6943,-2.692,-2.6897,-2.6876,-2.6891,-2.6873,-2.6854,-2.6823,-2.6808,-2.6784,-2.6748,-2.6718,-2.6706,-2.6676,-2.6654,-2.6656,-2.6646,-2.6644,-2.6641,-2.6712,-2.6722,-2.6644,-2.6644,-2.6644,-2.6644,-2.6644,-2.6644,-2.6899,-2.686,-2.6861,-2.6815,-2.6809,-2.6776,-2.6764,-2.6749,-2.6737,-2.6696,-2.6673,-2.6668,-2.6653,-2.6622,-2.6594,-2.6592,-2.6578,-2.6564,-2.6562,-2.6628,-2.6636,-2.6644,-2.6653,-2.6563,-2.6563,-2.6493,-2.6493,-2.6492]},{"header":{"parameterUnit":"m.s-1","parameterCategory":1,"la1":30.2991,"la2":30.254,"lo1":-89.0895,"lo2":-89.0444,"dy":0.0017,"dx":0.0017,"nx":28,"ny":28,"refTime":"2024-07-03T21:00:00:Z","depth":0,"parameterNumber":3,"parameterNumberName":"V-component_of_WINDS"},"data":[0,0,0,0,0,0,0,0,0,0,0,0,0,0,0,0,0,0,0,0,0,0,0,0,0,0,0,0,0,0,0,0,0,0,0,0,0,0,0,0,0,0,0,0,0,0,0,0,0,0,0,0,0,0,0,0,0,0,3.7088,3.7088,0,3.708,3.708,3.708,3.7072,3.7072,3.7072,3.7071,3.7061,3.7061,3.706,0,0,0,0,0,0,0,0,0,0,0,0,0,3.7094,3.7094,3.7088,3.7088,3.7088,3.708,3.708,3.708,3.7072,3.7072,3.7072,3.7071,3.7061,3.7061,3.706,0,0,0,0,0,0,0,0,0,0,0,0,0,3.709,3.7094,3.7088,3.7083,3.7082,3.708,3.708,3.708,3.7072,3.7072,3.7071,3.7071,3.7061,3.7061,3.706,3.7062,0,0,3.706,3.7059,0,0,0,0,0,0,0,0,3.709,3.7089,3.7084,3.7083,3.7083,3.7077,3.7079,3.7074,3.7072,3.7076,3.7071,3.7071,3.7066,3.7065,3.7064,3.7062,3.7061,3.706,3.7059,3.7059,3.7059,0,0,0,0,0,0,0,3.709,3.709,3.7085,3.7084,3.7083,3.7081,3.708,3.7078,3.7072,3.7075,3.7075,3.7074,3.7066,3.7065,3.7064,3.7061,3.706,3.7059,3.7059,3.7059,3.706,3.706,0,0,0,0,0,0,3.7092,3.709,3.7085,3.7085,3.7086,3.7081,3.708,3.7079,3.7072,3.7071,3.7074,3.7074,3.7065,3.7064,3.7063,3.7065,3.7059,3.7059,3.7059,3.706,3.706,3.706,0,0,0,0,0,0,3.7092,3.7091,3.7086,3.7087,3.7086,3.7081,3.708,3.7079,3.7078,3.7071,3.707,3.7074,3.7065,3.7064,3.7063,3.7065,3.7059,3.7059,3.706,3.706,3.706,3.7069,0,0,0,0,0,0,3.7092,3.7091,3.7092,3.7087,3.7086,3.7086,3.708,3.7079,3.7077,3.7077,3.7071,3.7069,3.7065,3.7063,3.7063,3.7064,3.7058,3.7059,3.706,3.706,3.7069,3.707,3.7071,0,0,0,0,0,3.7092,3.7094,3.7092,3.7092,3.7087,3.7086,3.7085,3.708,3.7078,3.7078,3.7074,3.707,3.7065,3.7063,3.7062,3.7064,3.7059,3.706,3.706,3.7068,3.7069,3.707,0,0,0,0,0,0,3.7098,3.7093,3.7091,3.7092,3.7089,3.7084,3.7085,3.7082,3.7079,3.7078,3.7072,3.7071,3.707,3.7067,3.7065,3.7066,3.7062,3.7062,3.7068,3.7069,3.707,3.7071,3.7058,0,0,0,0,0,3.71,3.71,3.7095,3.7096,3.7095,3.709,3.7089,3.7086,3.7083,3.7082,3.7077,3.7074,3.7072,3.707,3.7068,3.7068,3.7067,3.7069,3.707,3.7071,3.7071,3.7072,3.7073,3.7062,3.7062,3.7062,0,0,3.7103,3.71,3.71,3.7097,3.7095,3.7094,3.7089,3.7089,3.7088,3.7081,3.708,3.7077,3.7073,3.7073,3.7073,3.707,3.7074,3.7072,3.7072,3.7072,3.7072,3.7073,3.7074,3.7062,3.7062,3.7062,0,0,3.7108,3.7106,3.7107,3.7105,3.7102,3.7099,3.7099,3.7095,3.7093,3.7093,3.7088,3.7087,3.7083,3.708,3.7078,3.7084,3.708,3.7083,3.7088,3.7089,3.709,3.709,3.7093,3.7093,3.7084,3.7084,3.7084,0,3.7111,3.7111,3.7107,3.7108,3.7106,3.7102,3.7102,3.7101,3.7097,3.7096,3.7094,3.709,3.7086,3.7086,3.7087,3.7086,3.7086,3.7084,3.709,3.7091,3.7091,3.7093,3.7094,3.7084,3.7084,3.7084,3.7084,0,3.7116,3.7116,3.7117,3.7114,3.7114,3.7114,3.711,3.711,3.7107,3.7104,3.7104,3.71,3.7097,3.7097,3.7093,3.7096,3.7095,3.7091,3.7087,3.7093,3.7095,3.7095,3.7085,3.7085,3.7084,3.7084,0,0,3.7123,3.712,3.712,3.712,3.7117,3.7116,3.7117,3.7115,3.7115,3.7113,3.7113,3.711,3.7108,3.7106,3.7102,3.7103,3.7108,3.7099,3.7099,3.7101,3.7111,3.7114,3.7115,3.7106,3.7106,3.7106,3.7112,0,3.7128,3.7129,3.7126,3.7128,3.7128,3.7124,3.7124,3.7122,3.712,3.7119,3.7116,3.7115,3.7111,3.711,3.7111,3.7107,3.711,3.7107,3.7105,3.7105,3.7106,3.7115,3.7118,3.7123,3.7112,3.7112,3.7112,0,3.7133,3.7132,3.7134,3.7132,3.7132,3.7132,3.7131,3.713,3.7128,3.7127,3.7125,3.7122,3.7122,3.7118,3.7118,3.7116,3.7115,3.7114,3.7114,3.7113,3.7109,3.7115,3.7125,3.7126,3.7113,3.7113,3.7113,0,3.7138,3.7138,3.7139,3.7138,3.7136,3.7137,3.7135,3.7133,3.7133,3.7131,3.7131,3.7129,3.7128,3.7127,3.7123,3.7121,3.7124,3.712,3.7122,3.7122,3.7122,3.7122,3.7132,3.7122,3.7122,3.7122,3.7122,0,3.7143,3.7145,3.7142,3.7142,3.7144,3.7141,3.7142,3.7141,3.7139,3.7139,3.7135,3.7135,3.7131,3.713,3.7127,3.7128,3.7127,3.7126,3.7125,3.7126,3.7126,3.7125,3.7124,3.7123,3.7122,3.7122,3.7122,0,3.7149,3.7147,3.7149,3.7147,3.7146,3.7148,3.7146,3.7146,3.7144,3.7145,3.7144,3.7141,3.7141,3.7137,3.7135,3.7133,3.7135,3.7133,3.7136,3.7135,3.7138,3.7138,3.7147,3.7148,3.7138,3.7138,3.7138,0,3.7153,3.7154,3.7152,3.7153,3.7152,3.7152,3.7152,3.715,3.7149,3.7148,3.7149,3.7148,3.7147,3.7146,3.7144,3.7142,3.7141,3.7144,3.714,3.7142,3.7141,3.7141,3.7141,3.7145,3.7145,3.7145,3.7145,0,3.7159,3.7158,3.7158,3.7159,3.7159,3.7159,3.7158,3.7158,3.7155,3.7155,3.7155,3.7155,3.7154,3.7153,3.7152,3.715,3.7147,3.7146,3.7147,3.7148,3.7149,3.7149,3.7138,3.7146,3.7146,3.7146,3.7146,3.7146,3.7163,3.7165,3.7164,3.7165,3.7164,3.7164,3.7165,3.7164,3.7164,3.7163,3.7162,3.7162,3.7161,3.7159,3.7157,3.7157,3.7155,3.7156,3.7156,3.7156,3.7157,3.715,3.7157,3.7157,3.7157,3.7157,3.7157,0,3.7169,3.7169,3.717,3.717,3.7171,3.7169,3.7168,3.7169,3.717,3.7169,3.7169,3.7169,3.7169,3.7166,3.7166,3.7166,3.7165,3.7166,3.7166,3.7166,3.7159,3.7158,3.7167,3.7167,3.7167,3.7167,3.7167,3.7167,3.7173,3.7175,3.7174,3.7176,3.7176,3.7177,3.7177,3.7177,3.7176,3.7177,3.7177,3.7176,3.7175,3.7174,3.7174,3.7173,3.7173,3.7175,3.7174,3.7167,3.7166,3.7165,3.7165,3.7175,3.7175,3.718,3.7181,3.7181]}]]